• en Belgique
  • Liste des pays
  • À 7 jours
  • Température de l'eau
  • Carte satellitaire
  • Carte météo
  • Widgets météo
  • user-avatar
    Se connecter

    Météo par heure à Côte de l'Or

    Ce jour, 25 Septembre, Lundi

    Heure Température Précipitation Vent Pression Humidité
    00:00 +23°C° 0 mm 8 m/s 754 mmHg 61%
    01:00 +22°C° 0 mm 7 m/s 754 mmHg 61%
    02:00 +22°C° 0 mm 7 m/s 754 mmHg 62%
    03:00 +22°C° 0 mm 7 m/s 754 mmHg 63%
    04:00 +22°C° 0 mm 7 m/s 754 mmHg 62%
    05:00 +23°C° 0 mm 7 m/s 754 mmHg 59%
    06:00 +23°C° 0 mm 6 m/s 755 mmHg 56%
    07:00 +24°C° 0 mm 6 m/s 755 mmHg 53%
    08:00 +28°C° 0 mm 7 m/s 755 mmHg 42%
    09:00 +32°C° 0 mm 7 m/s 755 mmHg 32%
    10:00 +33°C° 0 mm 7 m/s 756 mmHg 27%
    11:00 +35°C° 0 mm 7 m/s 755 mmHg 23%
    12:00 +38°C° 0 mm 7 m/s 755 mmHg 20%
    13:00 +40°C° 0 mm 8 m/s 754 mmHg 16%
    14:00 +39°C° 0 mm 8 m/s 754 mmHg 18%
    15:00 +39°C° 0 mm 8 m/s 753 mmHg 20%
    16:00 +38°C° 0 mm 8 m/s 753 mmHg 22%
    17:00 +34°C° 0 mm 8 m/s 753 mmHg 29%
    18:00 +32°C° 0 mm 8 m/s 753 mmHg 37%
    19:00 +28°C° 0 mm 7 m/s 753 mmHg 44%
    20:00 +27°C° 0 mm 7 m/s 754 mmHg 46%
    21:00 +27°C° 0 mm 6 m/s 754 mmHg 48%
    22:00 +26°C° 0 mm 5 m/s 755 mmHg 50%
    23:00 +25°C° 0 mm 5 m/s 755 mmHg 48%

    Demain, 26 Septembre, Mardi

    Heure Température Précipitation Vent Pression Humidité
    00:00 +25°C° 0 mm 4 m/s 755 mmHg 47%
    01:00 +24°C° 0 mm 3 m/s 755 mmHg 46%
    02:00 +24°C° 0 mm 3 m/s 755 mmHg 45%
    03:00 +24°C° 0 mm 2 m/s 755 mmHg 44%
    04:00 +24°C° 0 mm 2 m/s 755 mmHg 43%
    05:00 +24°C° 0 mm 2 m/s 756 mmHg 44%
    06:00 +24°C° 0 mm 2 m/s 756 mmHg 45%
    07:00 +25°C° 0 mm 2 m/s 757 mmHg 46%
    08:00 +26°C° 0 mm 3 m/s 757 mmHg 44%
    09:00 +28°C° 0 mm 3 m/s 757 mmHg 42%
    10:00 +29°C° 0 mm 4 m/s 757 mmHg 41%
    11:00 +30°C° 0 mm 4 m/s 757 mmHg 38%
    12:00 +32°C° 0 mm 4 m/s 757 mmHg 35%
    13:00 +33°C° 0 mm 4 m/s 756 mmHg 33%
    14:00 +32°C° 0 mm 5 m/s 756 mmHg 39%
    15:00 +29°C° 0 mm 6 m/s 756 mmHg 45%
    16:00 +27°C° 0 mm 6 m/s 756 mmHg 51%
    17:00 +25°C° 0 mm 5 m/s 756 mmHg 57%
    18:00 +22°C° 0 mm 4 m/s 757 mmHg 63%
    19:00 +21°C° 0 mm 4 m/s 758 mmHg 69%
    20:00 +20°C° 0 mm 4 m/s 759 mmHg 72%
    21:00 +20°C° 0 mm 4 m/s 759 mmHg 75%
    22:00 +19°C° 0 mm 4 m/s 760 mmHg 78%
    23:00 +19°C° 0 mm 4 m/s 759 mmHg 80%

    Après-demain, 27 Septembre, Mercredi

    Heure Température Précipitation Vent Pression Humidité
    00:00 +19°C° 0 mm 4 m/s 759 mmHg 81%
    01:00 +19°C° 0 mm 4 m/s 759 mmHg 82%
    02:00 +19°C° 0 mm 4 m/s 759 mmHg 83%
    03:00 +19°C° 0 mm 3 m/s 759 mmHg 84%
    04:00 +19°C° 0 mm 3 m/s 759 mmHg 85%
    05:00 +19°C° 0 mm 3 m/s 759 mmHg 85%
    06:00 +20°C° 0 mm 4 m/s 760 mmHg 84%
    07:00 +20°C° 0 mm 4 m/s 760 mmHg 83%
    08:00 +21°C° 0 mm 4 m/s 760 mmHg 79%
    09:00 +24°C° 0 mm 3 m/s 760 mmHg 74%
    10:00 +25°C° 0 mm 3 m/s 760 mmHg 70%
    11:00 +26°C° 0 mm 3 m/s 759 mmHg 69%
    12:00 +26°C° 0 mm 3 m/s 759 mmHg 67%
    13:00 +27°C° 0 mm 3 m/s 758 mmHg 66%
    14:00 +27°C° 0 mm 3 m/s 757 mmHg 67%
    15:00 +27°C° 0 mm 4 m/s 757 mmHg 68%
    16:00 +27°C° 0 mm 4 m/s 756 mmHg 70%
    17:00 +26°C° 0 mm 4 m/s 756 mmHg 76%
    18:00 +23°C° 0 mm 5 m/s 756 mmHg 82%
    19:00 +22°C° 0 mm 5 m/s 757 mmHg 88%
    20:00 +22°C° 0 mm 5 m/s 757 mmHg 88%
    21:00 +22°C° 0 mm 6 m/s 757 mmHg 88%
    22:00 +22°C° 0 mm 6 m/s 757 mmHg 89%
    23:00 +22°C° 0 mm 6 m/s 757 mmHg 88%

    28 Septembre, Jeudi

    Heure Température Précipitation Vent Pression Humidité
    00:00 +22°C° 0 mm 6 m/s 756 mmHg 87%
    01:00 +21°C° 0 mm 6 m/s 755 mmHg 87%
    02:00 +21°C° 0 mm 6 m/s 755 mmHg 84%
    03:00 +21°C° 0 mm 6 m/s 755 mmHg 82%
    04:00 +21°C° 0 mm 6 m/s 755 mmHg 80%
    05:00 +22°C° 0 mm 6 m/s 755 mmHg 74%
    06:00 +23°C° 0 mm 6 m/s 755 mmHg 68%
    07:00 +24°C° 0 mm 6 m/s 756 mmHg 62%
    08:00 +29°C° 0 mm 6 m/s 756 mmHg 47%
    09:00 +34°C° 0 mm 6 m/s 756 mmHg 33%
    10:00 +39°C° 0 mm 6 m/s 755 mmHg 19%
    11:00 +40°C° 0 mm 6 m/s 755 mmHg 18%
    12:00 +41°C° 0 mm 7 m/s 754 mmHg 16%
    13:00 +43°C° 0 mm 7 m/s 754 mmHg 15%
    14:00 +43°C° 0 mm 7 m/s 753 mmHg 16%
    15:00 +41°C° 0 mm 7 m/s 753 mmHg 16%
    16:00 +41°C° 0 mm 7 m/s 753 mmHg 17%
    17:00 +38°C° 0 mm 6 m/s 753 mmHg 24%
    18:00 +34°C° 0 mm 5 m/s 754 mmHg 31%
    19:00 +30°C° 0 mm 4 m/s 755 mmHg 37%
    20:00 +28°C° 0 mm 3 m/s 755 mmHg 44%
    21:00 +27°C° 0 mm 3 m/s 756 mmHg 50%
    22:00 +25°C° 0 mm 3 m/s 757 mmHg 56%
    23:00 +24°C° 0 mm 3 m/s 756 mmHg 61%

    29 Septembre, Vendredi

    Heure Température Précipitation Vent Pression Humidité
    00:00 +22°C° 0 mm 3 m/s 756 mmHg 65%
    01:00 +22°C° 0 mm 3 m/s 756 mmHg 70%
    02:00 +21°C° 0 mm 2 m/s 756 mmHg 70%
    03:00 +21°C° 0 mm 2 m/s 756 mmHg 71%
    04:00 +22°C° 0 mm 1 m/s 756 mmHg 71%
    05:00 +23°C° 0 mm 2 m/s 756 mmHg 66%
    06:00 +24°C° 0 mm 2 m/s 757 mmHg 61%
    07:00 +25°C° 0 mm 2 m/s 758 mmHg 56%
    08:00 +28°C° 0 mm 2 m/s 758 mmHg 47%
    09:00 +31°C° 0 mm 2 m/s 758 mmHg 37%
    10:00 +35°C° 0 mm 2 m/s 758 mmHg 27%
    11:00 +36°C° 0 mm 2 m/s 757 mmHg 25%
    12:00 +37°C° 0 mm 3 m/s 756 mmHg 24%
    13:00 +38°C° 0 mm 4 m/s 756 mmHg 22%
    14:00 +36°C° 0 mm 4 m/s 755 mmHg 26%
    15:00 +35°C° 0 mm 4 m/s 755 mmHg 30%
    16:00 +33°C° 0 mm 4 m/s 755 mmHg 34%
    17:00 +31°C° 0 mm 3 m/s 755 mmHg 38%
    18:00 +29°C° 0 mm 3 m/s 756 mmHg 42%
    19:00 +27°C° 0 mm 2 m/s 756 mmHg 46%
    20:00 +27°C° 0 mm 2 m/s 756 mmHg 43%
    21:00 +27°C° 0 mm 2 m/s 757 mmHg 41%
    22:00 +27°C° 0 mm 2 m/s 757 mmHg 38%
    23:00 +25°C° 0 mm 2 m/s 757 mmHg 41%

    30 Septembre, Samedi

    Heure Température Précipitation Vent Pression Humidité
    00:00 +24°C° 0 mm 2 m/s 757 mmHg 44%
    01:00 +23°C° 0 mm 2 m/s 757 mmHg 47%
    02:00 +23°C° 0 mm 2 m/s 757 mmHg 45%
    03:00 +23°C° 0 mm 2 m/s 757 mmHg 43%
    04:00 +23°C° 0 mm 2 m/s 757 mmHg 41%
    05:00 +23°C° 0 mm 2 m/s 758 mmHg 39%
    06:00 +23°C° 0 mm 2 m/s 759 mmHg 37%
    07:00 +24°C° 0 mm 2 m/s 759 mmHg 35%
    08:00 +26°C° 0 mm 2 m/s 759 mmHg 30%
    09:00 +28°C° 0 mm 2 m/s 759 mmHg 25%
    10:00 +31°C° 0 mm 2 m/s 759 mmHg 20%
    11:00 +33°C° 0 mm 3 m/s 758 mmHg 19%
    12:00 +34°C° 0 mm 4 m/s 758 mmHg 19%
    13:00 +35°C° 0 mm 5 m/s 757 mmHg 18%
    14:00 +33°C° 0 mm 4 m/s 757 mmHg 23%
    15:00 +30°C° 0 mm 4 m/s 757 mmHg 28%
    16:00 +28°C° 0 mm 4 m/s 757 mmHg 33%
    17:00 +27°C° 0 mm 3 m/s 758 mmHg 35%
    18:00 +26°C° 0 mm 2 m/s 759 mmHg 36%
    19:00 +25°C° 0 mm 2 m/s 760 mmHg 38%
    20:00 +25°C° 0 mm 2 m/s 760 mmHg 36%
    21:00 +24°C° 0 mm 2 m/s 761 mmHg 35%
    22:00 +24°C° 0 mm 1 m/s 761 mmHg 34%
    23:00 +24°C° 0 mm 2 m/s 761 mmHg 35%
    Voir plus